CZ-6A DEB

Satellite information

Favourite Embed

Satellite Type and Status

DEBRISIN ORBIT

Key statistics

Satellite CZ-6A DEB at a glance.

Uptime

447

Days in orbit

Revolutions

≈ 14.2

Per day

Orbit

LEO

Low Earth Orbit

Inclination

89.0

Latest

Satellite identification and parameters

Extended collection of information and parameters for CZ-6A DEB.

Object identification

Identified? True

Debris? True

Object name: CZ-6A DEB

International designator: 2024-140NW

Object number (NORAD): 61104

Object ID (CCSDS): 61104

Country: PEOPLES REPUBLIC OF CHINA (PRC)

Current information (Y/N): Y

RCS size: SMALL

Orbital parameters

Period: 101.419 minutes

Inclination: 89.0008 deg

SMA: 7203.983 km

Apoapsis: 859.762 km

Periapsis: 791.934 km

RAAN: 301.3138 deg

Eccentricy: 0.00470769

Argument of periapsis: 192.2362 deg

Mean anomaly: 167.7689 deg

Mean motion: 14.1985412 rev/day

Mean motion (dot): 0.00000434 rev/day2

B* drag term: 0.00019605626 1/REarth

Two-line elements (TLE)

Creation date: Oct. 27, 2025, 2:46 a.m.

Reference frame: TEME

Reference center: EARTH

Epoch: Oct. 26, 2025, 10:16 a.m. UTC

TLE line 0: 0 CZ-6A DEB

TLE line 1: 1 61104U 24140NW 25299.42809512 .00000434 00000-0 19606-3 0 9997

TLE line 2: 2 61104 89.0008 301.3138 0047077 192.2362 167.7689 14.19854120 60249

Live tracking on map

Real-time ground track for satellite CZ-6A DEB.

In-orbit conjunctions

A list of the most updated potential collisions computed for object CZ-6A DEB.

Target Orbit TCA Probability of collision Miss distance Type
FENGYUN 1C DEB SSO 2025-09-16 15:59:43 0.000105017 205.0 (m) DEBRIS
FENGYUN 1C DEB SSO 2024-12-27 05:06:56 0.0004561921 600.0 (m) DEBRIS
ARIANE 44L DEB MEO 2024-12-26 14:51:48 0.0001414335 405.0 (m) DEBRIS
METEOR 1-17 DEB LEO 2024-11-17 04:51:28 0.0001128748 725.0 (m) DEBRIS
SL-16 DEB LEO 2024-11-13 00:09:56 0.0002417586 870.0 (m) DEBRIS

Associated space launch

18 Low Earth Orbit communication satellites with Ku, Q and V band payloads for the G60 constellation operated by Shanghai Spacecom Satellite Technology (SSST) with funding backed by the Shanghai local government. Initial constellation will consist of 1296 satellites by 2027 with long term plans to expand it to 12000 satellites.

CZ-6A DEB was lifted into orbit during the mission ‘Long March 6A | G60 Polar Group 01’, on board a Long March 6A space rocket.

The launch took place on Aug. 6, 2024, 6:42 a.m. from Launch Complex 9A.

For more information about the launch, click the button.

Launch to space Long March 6A | G60 Polar Group 01
Long March 6A | G60 Polar Group 01

Agency: N/A

Status: Launch Successful

Launch date: Aug. 6, 2024, 6:42 a.m. UTC

Rocket: Long March 6A

Launch pad: Launch Complex 9A

Location: Taiyuan Satellite Launch Center, People's Republic of China

...

Latest news about this satellite

News about space launch
Brightness of first Chinese broadband constellation satellites alarms astronomers

The first satellites of a Chinese broadband constellation are significantly brighter than those of Western systems, posing a new challenge for astronomers.

News about space launch
Chinese rocket stage breaks up into cloud of more than 700 pieces of space debris

HELSINKI — A Chinese Long March 6A rocket’s upper stage has fragmented into a cloud of over 700 pieces of space debris, adding to concerns about long-term orbital safety. China […]

News about space launch
China's Thousand Sails Megaconstellation Kicks Off with Dangerous Debris Field

China's Thousand Sails Megaconstellation Kicks Off with Dangerous Debris Field


Newsletter sign-up

Weekly statistics, charts and insights to help you stay on top of the space industry.